Location: Budapest
(47.4979°N, 19.0402°E)
Time: 22:11:35
(UTC+02:00)

Vanguard 3 - All Passes

Search period start: 16 August 2018 00:00
Search period end: 26 August 2018 00:00
Orbit: 507 x 3264 km, 33.4° (Epoch: 14 August)

Date Brightness Start Highest point End Pass type
(mag) Time Alt. Az. Time Alt. Az. Time Alt. Az.
16 Aug - 09:33:56 10° SSW 09:43:12 30° SE 09:56:44 10° E daylight
16 Aug - 11:43:24 10° WSW 11:56:01 48° S 12:13:57 10° ESE daylight
16 Aug - 13:55:26 10° WSW 14:10:39 47° SSW 14:28:51 10° SE daylight
16 Aug - 16:10:07 10° W 16:24:58 30° SW 16:39:57 10° SSE daylight
17 Aug - 08:22:51 10° S 08:29:26 19° SE 08:38:16 10° E daylight
17 Aug - 10:30:14 10° SW 10:40:51 41° SSE 10:56:53 10° E daylight
17 Aug - 12:41:04 10° WSW 12:54:40 49° S 13:13:02 10° ESE daylight
17 Aug - 14:54:10 10° W 15:09:20 38° SSW 15:26:17 10° SE daylight
17 Aug - 17:11:31 10° W 17:22:46 19° SW 17:33:49 10° S daylight
18 Aug - 09:17:52 10° SSW 09:26:25 31° SSE 09:39:21 10° E daylight
18 Aug - 11:27:21 10° WSW 11:39:04 47° S 11:56:28 10° ESE daylight
18 Aug - 13:39:13 10° W 13:53:27 44° SSW 14:11:24 10° SE daylight
18 Aug - 15:53:49 10° W 16:07:37 27° SW 16:22:13 10° SSE daylight
19 Aug - 08:06:38 10° S 08:12:45 20° SE 08:21:10 10° E daylight
19 Aug - 10:14:16 10° SW 10:24:04 41° SSE 10:39:23 10° E daylight
19 Aug - 12:25:01 10° WSW 12:37:39 47° S 12:55:31 10° ESE daylight
19 Aug - 14:37:57 10° W 14:52:03 35° SSW 15:08:39 10° SSE daylight
19 Aug - 16:55:54 10° WSW 17:05:26 16° SW 17:15:09 10° SSW daylight
20 Aug - 09:01:54 10° SSW 09:09:47 31° SSE 09:21:57 10° E daylight
20 Aug - 11:11:26 10° WSW 11:22:15 46° S 11:38:55 10° ESE daylight
20 Aug - 13:23:09 10° W 13:36:20 41° SSW 13:53:46 10° SE daylight
20 Aug - 15:37:48 10° W 15:50:20 24° SW 16:04:08 10° S daylight
21 Aug - 07:50:34 10° S 07:56:13 20° SE 08:04:05 10° E daylight
21 Aug - 09:58:25 10° SW 10:07:26 40° SSE 10:21:52 10° ESE daylight
21 Aug - 12:09:05 10° WSW 12:20:45 44° S 12:37:52 10° ESE daylight
21 Aug - 14:21:56 10° W 14:34:53 32° SSW 14:50:45 10° SSE daylight
21 Aug - 16:41:05 10° WSW 16:48:11 13° SW 16:55:34 10° SSW daylight
22 Aug - 08:46:04 10° SSW 08:53:17 31° SSE 09:04:35 10° E daylight
22 Aug - 10:55:37 10° WSW 11:05:33 44° S 11:21:17 10° ESE daylight
22 Aug - 13:07:12 10° WSW 13:19:20 38° SSW 13:35:56 10° SE daylight
22 Aug - 15:22:05 10° WSW 15:33:08 21° SW 15:45:39 10° S daylight
23 Aug - 07:34:38 10° S 07:39:48 20° SE 07:47:02 10° ESE daylight
23 Aug - 09:42:41 10° SW 09:50:55 39° SSE 10:04:20 10° ESE daylight
23 Aug - 11:53:16 10° WSW 12:03:58 41° S 12:20:06 10° SE daylight
23 Aug - 14:06:06 10° WSW 14:17:49 28° SSW 14:32:35 10° SSE daylight
23 Aug - 16:29:05 10° SW 16:31:03 10° SW 16:33:02 10° SW daylight
24 Aug - 08:30:20 10° SW 08:36:54 30° SSE 08:47:16 10° ESE daylight
24 Aug - 10:39:54 10° WSW 10:48:59 41° S 11:03:37 10° ESE daylight
24 Aug - 12:51:26 10° WSW 13:02:27 34° SSW 13:17:55 10° SE daylight
24 Aug - 15:06:49 10° WSW 15:16:03 18° SW 15:26:39 10° S daylight
25 Aug - 07:18:48 10° S 07:23:30 19° SE 07:30:03 10° ESE daylight
25 Aug - 09:27:02 10° SW 09:34:32 37° S 09:46:50 10° ESE daylight
25 Aug - 11:37:34 10° WSW 11:47:19 37° S 12:02:14 10° SE daylight
25 Aug - 13:50:32 10° WSW 14:00:53 24° SSW 14:14:06 10° SSE daylight
